Total_Precipitation_Accumulation
0.06 0.10 0.15 0.15 0.19 0.22 0.25 0.29 0.33 0.44 0.36 0.37 0.54 0.84 0.97 0.97 0.99 1.12 1.33 1.33 1.33 1.46 1.85 2.31 2.82 3.29 4.01 4.99 6.02 6.49 6.37 5.81 5.36 5.01 4.73 4.48 4.10 3.77 3.63 3.33 3.02 2.99 2.98 3.02
0.09 0.12 0.10 0.11 0.12 0.16 0.22 0.30 0.33 0.41 0.33 0.39 0.58 0.95 1.14 1.22 1.26 1.18 1.24 1.36 1.29 1.46 1.92 2.42 2.99 3.37 3.72 4.31 5.14 5.56 5.29 4.74 4.15 3.99 3.94 3.91 3.81 3.38 3.15 3.09 3.10 2.76 2.81 2.95
0.10 0.10 0.08 0.08 0.10 0.17 0.22 0.27 0.32 0.39 0.35 0.48 0.68 1.32 1.57 1.48 1.22 0.99 0.90 1.06 1.10 1.20 1.70 2.43 2.98 3.26 3.53 3.81 3.90 4.06 4.02 3.60 3.34 3.30 3.30 3.34 3.54 3.32 3.03 2.95 2.90 2.65 2.57 2.62
0.09 0.07 0.06 0.07 0.11 0.16 0.22 0.19 0.20 0.28 0.43 0.69 0.80 1.76 2.05 1.67 1.36 1.08 0.91 0.92 1.01 1.14 1.55 2.29 2.62 2.75 2.80 2.89 2.80 2.92 3.03 2.99 3.01 2.97 3.03 2.90 2.78 2.80 2.69 2.69 2.65 2.64 2.51 2.43
0.10 0.06 0.07 0.08 0.11 0.15 0.21 0.16 0.18 0.28 0.49 0.72 0.98 1.59 2.12 1.82 1.56 1.18 0.88 0.86 1.02 1.05 1.26 1.58 1.72 1.87 1.94 2.00 2.06 2.33 2.72 2.90 2.85 2.81 3.01 3.02 2.66 2.52 2.45 2.47 2.67 2.65 2.50 2.36
0.10 0.08 0.07 0.08 0.11 0.14 0.17 0.21 0.28 0.48 0.76 1.28 1.28 1.44 1.96 1.80 1.50 1.03 0.82 0.79 0.73 0.77 0.93 1.12 1.23 1.35 1.43 1.48 1.61 1.88 2.33 2.61 2.60 2.64 2.70 2.65 2.61 2.59 2.55 2.52 2.57 2.48 2.38 2.46
0.15 0.13 0.13 0.13 0.14 0.17 0.16 0.25 0.60 1.13 1.64 1.75 1.17 1.32 1.75 1.37 1.01 0.74 0.62 0.61 0.64 0.77 0.84 0.98 1.18 1.29 1.25 1.20 1.32 1.51 1.84 2.03 2.08 2.20 2.37 2.48 2.56 2.55 2.38 2.33 2.31 2.23 2.02 2.15
0.21 0.21 0.17 0.13 0.12 0.15 0.18 0.24 0.50 0.86 1.01 1.14 1.08 1.64 1.80 1.06 0.79 0.68 0.60 0.58 0.69 0.76 0.74 0.83 0.98 1.03 1.03 1.09 1.17 1.31 1.47 1.58 1.70 1.80 2.01 2.20 2.26 2.25 2.20 2.37 2.24 2.08 1.84 1.77
0.12 0.13 0.10 0.09 0.10 0.13 0.18 0.20 0.24 0.35 0.45 0.85 1.28 1.62 1.50 1.00 0.77 0.68 0.60 0.54 0.68 0.70 0.63 0.67 0.78 0.85 0.88 1.03 1.12 1.16 1.28 1.40 1.53 1.63 1.91 2.08 2.10 2.07 2.11 2.22 2.12 1.91 1.90 1.78
0.08 0.08 0.10 0.10 0.10 0.13 0.16 0.18 0.21 0.30 0.51 0.85 1.32 1.81 1.77 1.33 0.98 0.82 0.63 0.52 0.59 0.59 0.56 0.63 0.68 0.77 0.76 0.79 0.93 1.06 1.15 1.34 1.54 1.63 1.70 1.72 1.89 1.88 1.88 1.83 1.78 1.85 1.87 1.82
0.08 0.08 0.09 0.11 0.13 0.16 0.17 0.15 0.18 0.23 0.33 0.63 1.19 1.53 1.13 0.95 0.79 0.75 0.70 0.63 0.61 0.64 0.65 0.64 0.71 0.73 0.70 0.69 0.85 1.01 1.13 1.28 1.37 1.38 1.42 1.53 1.63 1.63 1.61 1.61 1.58 1.69 1.74 1.79
0.08 0.10 0.11 0.13 0.16 0.15 0.14 0.12 0.15 0.21 0.26 0.35 0.73 0.97 0.63 0.65 0.63 0.71 0.74 0.74 0.78 0.86 0.83 0.81 0.85 0.82 0.81 0.82 0.87 1.00 1.04 1.10 1.14 1.18 1.25 1.34 1.48 1.52 1.53 1.56 1.67 1.78 1.81 1.81
0.07 0.10 0.14 0.28 0.33 0.24 0.15 0.12 0.15 0.17 0.20 0.29 0.63 0.93 0.63 0.63 0.71 0.74 0.76 0.83 0.84 0.81 0.86 1.03 1.07 0.94 0.88 0.87 0.92 0.97 0.98 1.01 1.04 1.10 1.15 1.23 1.38 1.56 1.66 1.71 1.76 1.90 1.99 1.97
0.08 0.09 0.11 0.26 0.36 0.34 0.26 0.19 0.18 0.20 0.24 0.28 0.42 0.69 0.67 0.63 0.71 0.84 0.81 0.78 0.84 0.85 0.88 1.05 1.19 0.99 0.87 0.82 0.85 0.90 0.90 0.87 0.91 1.09 1.25 1.34 1.55 1.76 1.85 1.88 1.94 1.98 2.03 2.02
0.11 0.10 0.09 0.09 0.17 0.24 0.26 0.22 0.20 0.17 0.17 0.25 0.36 0.55 0.70 0.80 0.83 0.86 0.89 0.87 0.80 0.84 0.88 0.93 1.04 1.04 0.94 0.88 0.87 0.91 1.00 1.05 1.08 1.29 1.49 1.69 1.88 1.94 1.99 2.05 2.07 2.13 2.16 2.06
0.16 0.13 0.12 0.13 0.18 0.20 0.21 0.23 0.19 0.15 0.14 0.21 0.35 0.57 0.75 0.75 0.86 0.90 0.84 0.82 0.83 0.88 0.93 1.05 1.10 1.09 1.12 1.08 1.08 1.15 1.22 1.33 1.49 1.70 1.85 1.93 2.01 2.05 2.00 2.02 2.04 2.19 2.24 2.29
0.23 0.23 0.24 0.24 0.25 0.27 0.32 0.27 0.23 0.20 0.21 0.28 0.39 0.59 0.73 0.82 0.96 1.06 1.07 0.97 0.96 1.07 1.11 1.21 1.26 1.25 1.30 1.30 1.38 1.52 1.51 1.59 1.77 1.95 2.14 2.15 2.14 2.14 2.09 2.13 2.15 2.14 2.27 2.40
0.30 0.34 0.33 0.33 0.38 0.54 0.44 0.31 0.28 0.27 0.29 0.33 0.45 0.63 0.76 0.88 0.95 1.15 1.31 1.24 1.08 1.04 1.11 1.23 1.32 1.33 1.28 1.34 1.46 1.70 1.81 1.81 1.96 2.10 2.22 2.30 2.36 2.42 2.48 2.55 2.53 2.57 2.63 2.68
0.32 0.45 0.48 0.48 0.58 0.62 0.52 0.41 0.36 0.40 0.52 0.51 0.64 0.88 1.00 1.03 1.24 1.49 1.48 1.35 1.25 1.24 1.21 1.36 1.37 1.33 1.35 1.56 1.66 1.73 1.83 1.86 2.03 2.24 2.40 2.49 2.56 2.62 2.66 2.68 2.80 2.96 3.11 3.18
0.38 0.43 0.57 0.56 0.69 0.79 0.74 0.54 0.49 0.64 1.19 0.97 0.95 1.03 1.03 1.16 1.69 1.77 1.38 1.22 1.22 1.23 1.33 1.48 1.53 1.49 1.58 1.87 1.95 2.04 2.11 2.17 2.25 2.36 2.53 2.74 2.89 2.97 2.94 3.01 3.22 3.41 3.58 3.62
0.66 0.68 0.66 0.66 0.77 0.86 0.74 0.60 0.68 1.31 1.76 1.39 1.26 1.23 1.25 1.48 1.59 1.60 1.44 1.27 1.20 1.22 1.31 1.46 1.54 1.56 1.63 1.86 2.06 2.35 2.48 2.54 2.56 2.60 2.72 2.89 3.06 3.20 3.25 3.38 3.49 3.69 3.85 3.84
0.96 1.03 1.02 1.01 1.20 1.25 0.79 0.78 1.19 1.56 1.35 1.46 1.61 1.64 1.59 1.60 1.43 1.39 1.43 1.44 1.40 1.37 1.39 1.46 1.60 1.69 1.77 1.89 2.14 2.42 2.63 2.78 2.85 2.84 3.00 3.10 3.17 3.03 3.00 3.31 3.54 3.79 4.02 3.98
1.20 1.24 1.28 1.36 1.52 1.34 1.04 1.13 1.21 1.19 1.32 1.43 1.54 1.69 1.75 1.73 1.72 1.62 1.67 1.65 1.57 1.49 1.44 1.45 1.52 1.65 1.73 1.81 2.03 2.44 2.60 2.71 2.82 2.91 2.97 3.11 3.15 3.14 3.22 3.45 3.65 3.88 4.01 3.96
1.28 1.24 1.43 1.57 1.62 1.49 1.39 1.41 1.44 1.44 1.46 1.47 1.51 1.63 1.71 1.75 1.84 1.77 1.72 1.56 1.44 1.37 1.41 1.49 1.57 1.70 1.78 1.71 1.86 2.06 2.27 2.43 2.53 2.59 2.61 2.62 2.74 2.91 3.17 3.50 3.59 3.67 3.71 3.75
1.44 1.41 1.62 1.98 2.08 2.01 1.85 1.83 1.80 1.69 1.73 1.77 1.72 1.70 1.73 1.66 1.70 1.70 1.56 1.40 1.35 1.40 1.35 1.43 1.61 1.63 1.68 1.75 1.76 1.81 1.87 2.06 2.24 2.29 2.30 2.39 2.51 2.72 2.95 3.18 3.32 3.28 3.31 3.52
1.78 1.70 1.77 2.10 2.14 2.31 2.27 2.05 1.97 1.82 1.86 1.88 1.82 1.72 1.68 1.66 1.68 1.63 1.53 1.45 1.41 1.41 1.43 1.44 1.53 1.55 1.57 1.70 1.78 1.76 1.87 2.04 2.10 2.04 2.04 2.08 2.15 2.35 2.53 2.68 2.79 2.83 2.61 2.67